Location: Baia de Cri?
(46.1667°N, 22.7167°E)
Time: 21:46:55
(UTC+00:00)

Timation 1 Rocket - Pass Details

Date: 15 January 2026
Orbit: 895 x 908 km, 70.0° (Epoch: 10 February)

Event Time Altitude Azimuth Distance (km) Brightness Sun altitude
Exits shadow 04:08:02 20° 331° (NNW) 1,951 5.7 -20.2°
Maximum altitude 04:12:18 87° 245° (WSW) 914 4.3 -19.5°
Drops below altitude 10° 04:18:18 10° 155° (SSE) 2,584 7.2 -18.5°
Sets 04:20:47 0° 155° (SSE) 3,522 8.0 -18.0°
